Zurück zum Katalog

FALCON 9 DEB

AktivVLEO
NORAD 48610·DEBRIS·🇺🇸 United States

Gestartet May 15, 2021 von Cape Canaveral Space Force Station

Loading…

Nächste Überflüge (nächste 24 Stunden)

TLE

AktuellSource: Space-Track

Epoche: Sep 13, 2026, 18:06 UTC

1 48610U 21041BK  26256.75435513  .00002636  00000-0  15061-3 0  9994
2 48610  53.0218  29.6475 0011428  46.3122 313.8816 15.16221523293144

Verfolge FALCON 9 DEB in Echtzeit mit AllMySat

Download on the App Store